When you browse on this site, cookies collect data to enhance your experience and personalize the content and advertising you see.
Visit our Privacy Policy to learn more. By continuing to use the site, you agree to this use of cookies and data.
  • En España
  • Lista de países
  • Para 7 días
  • Temperatura del agua
  • El tiempo en el mapa
  • Informadores
  • user-avatar
    Iniciar sesión

    Tiempo cada hora Gloucester

    Hoy, 25 Enero, Sábado

    Tiempo Temperatura Precipitaciones Viento Presión Humedad
    00:00 +6°C° 0 mm 2 mps 759 mmHg 88%
    01:00 +5°C° 0 mm 2 mps 759 mmHg 89%
    02:00 +5°C° 0 mm 2 mps 758 mmHg 89%
    03:00 +5°C° 0 mm 2 mps 758 mmHg 90%
    04:00 +5°C° 0 mm 2 mps 758 mmHg 91%
    05:00 +4°C° 0 mm 2 mps 758 mmHg 92%
    06:00 +4°C° 0 mm 2 mps 757 mmHg 93%
    07:00 +3°C° 0 mm 2 mps 757 mmHg 94%
    08:00 +3°C° 0 mm 2 mps 757 mmHg 94%
    09:00 +3°C° 0 mm 2 mps 757 mmHg 95%
    10:00 +4°C° 0 mm 2 mps 757 mmHg 92%
    11:00 +4°C° 0 mm 3 mps 757 mmHg 89%
    12:00 +5°C° 0 mm 3 mps 757 mmHg 86%
    13:00 +6°C° 0 mm 2 mps 756 mmHg 88%
    14:00 +7°C° 0 mm 2 mps 756 mmHg 89%
    15:00 +7°C° 0 mm 2 mps 755 mmHg 91%
    16:00 +7°C° 0 mm 2 mps 755 mmHg 92%
    17:00 +7°C° 0 mm 2 mps 754 mmHg 94%
    18:00 +7°C° 0 mm 2 mps 754 mmHg 95%
    19:00 +7°C° 0 mm 3 mps 754 mmHg 95%
    20:00 +7°C° 0 mm 3 mps 754 mmHg 94%
    21:00 +7°C° 0 mm 3 mps 753 mmHg 94%
    22:00 +7°C° 0 mm 3 mps 753 mmHg 94%
    23:00 +7°C° 0 mm 3 mps 752 mmHg 95%

    Mañana, 26 Enero, Domingo

    Tiempo Temperatura Precipitaciones Viento Presión Humedad
    00:00 +7°C° 0 mm 3 mps 752 mmHg 95%
    01:00 +7°C° 0 mm 3 mps 752 mmHg 96%
    02:00 +5°C° 0 mm 3 mps 751 mmHg 96%
    03:00 +5°C° 0 mm 3 mps 751 mmHg 96%
    04:00 +5°C° 0 mm 3 mps 751 mmHg 95%
    05:00 +5°C° 0 mm 4 mps 750 mmHg 94%
    06:00 +5°C° 0 mm 4 mps 750 mmHg 93%
    07:00 +5°C° 0 mm 4 mps 750 mmHg 92%
    08:00 +4°C° 0 mm 4 mps 750 mmHg 92%
    09:00 +4°C° 0 mm 4 mps 750 mmHg 91%
    10:00 +5°C° 0.6 mm 5 mps 749 mmHg 91%
    11:00 +5°C° 0.6 mm 6 mps 749 mmHg 92%
    12:00 +7°C° 0.6 mm 6 mps 748 mmHg 92%
    13:00 +7°C° 1.3 mm 6 mps 748 mmHg 93%
    14:00 +7°C° 1.3 mm 5 mps 748 mmHg 94%
    15:00 +7°C° 1.3 mm 4 mps 748 mmHg 94%
    16:00 +8°C° 0.1 mm 3 mps 748 mmHg 94%
    17:00 +7°C° 0.1 mm 3 mps 747 mmHg 94%
    18:00 +7°C° 0.1 mm 3 mps 747 mmHg 94%
    19:00 +5°C° 0 mm 3 mps 748 mmHg 94%
    20:00 +5°C° 0 mm 2 mps 748 mmHg 94%
    21:00 +5°C° 0 mm 2 mps 748 mmHg 94%
    22:00 +4°C° 0 mm 2 mps 748 mmHg 93%
    23:00 +4°C° 0 mm 2 mps 748 mmHg 93%

    Pasado mañana, 27 Enero, Lunes

    Tiempo Temperatura Precipitaciones Viento Presión Humedad
    00:00 +3°C° 0 mm 2 mps 747 mmHg 93%
    01:00 +2°C° 0 mm 3 mps 747 mmHg 92%
    02:00 +3°C° 0 mm 4 mps 747 mmHg 91%
    03:00 +3°C° 0 mm 4 mps 747 mmHg 91%
    04:00 +3°C° 0.1 mm 4 mps 746 mmHg 91%
    05:00 +2°C° 0.1 mm 5 mps 746 mmHg 92%
    06:00 +2°C° 0.1 mm 5 mps 745 mmHg 93%
    07:00 +3°C° 0.4 mm 5 mps 745 mmHg 92%
    08:00 +3°C° 0.4 mm 5 mps 745 mmHg 92%
    09:00 +3°C° 0.4 mm 6 mps 744 mmHg 92%
    10:00 +4°C° 0.1 mm 6 mps 744 mmHg 89%
    11:00 +5°C° 0.1 mm 6 mps 743 mmHg 85%
    12:00 +5°C° 0.1 mm 6 mps 743 mmHg 82%
    13:00 +6°C° 0.4 mm 5 mps 742 mmHg 84%
    14:00 +5°C° 0.4 mm 5 mps 741 mmHg 87%
    15:00 +5°C° 0.4 mm 5 mps 740 mmHg 89%
    16:00 +4°C° 0.1 mm 4 mps 740 mmHg 91%
    17:00 +4°C° 0.1 mm 4 mps 739 mmHg 92%
    18:00 +3°C° 0.1 mm 3 mps 739 mmHg 94%
    19:00 +3°C° 0.1 mm 3 mps 738 mmHg 93%
    20:00 +3°C° 0.1 mm 4 mps 738 mmHg 93%
    21:00 +3°C° 0.1 mm 4 mps 737 mmHg 92%
    22:00 +3°C° 0.3 mm 4 mps 737 mmHg 92%
    23:00 +2°C° 0.3 mm 5 mps 736 mmHg 92%

    28 Enero, Martes

    Tiempo Temperatura Precipitaciones Viento Presión Humedad
    00:00 +2°C° 0.3 mm 5 mps 736 mmHg 92%
    01:00 +2°C° 0.4 mm 5 mps 736 mmHg 90%
    02:00 +1°C° 0.4 mm 5 mps 736 mmHg 88%
    03:00 0°C° 0.4 mm 5 mps 736 mmHg 86%
    04:00 0°C° 0 mm 5 mps 737 mmHg 85%
    05:00 -1°C° 0 mm 4 mps 738 mmHg 83%
    06:00 -2°C° 0 mm 4 mps 738 mmHg 82%
    07:00 -1°C° 0 mm 4 mps 738 mmHg 81%
    08:00 -1°C° 0 mm 4 mps 739 mmHg 81%
    09:00 -1°C° 0 mm 4 mps 739 mmHg 80%
    10:00 0°C° 0 mm 5 mps 739 mmHg 77%
    11:00 +2°C° 0 mm 6 mps 739 mmHg 74%
    12:00 +2°C° 0 mm 8 mps 739 mmHg 71%
    13:00 +3°C° 0.2 mm 7 mps 740 mmHg 72%
    14:00 +3°C° 0.2 mm 7 mps 740 mmHg 74%
    15:00 +2°C° 0.2 mm 6 mps 740 mmHg 75%
    16:00 +1°C° 0 mm 6 mps 741 mmHg 79%
    17:00 0°C° 0 mm 5 mps 742 mmHg 82%
    18:00 0°C° 0 mm 4 mps 742 mmHg 85%
    19:00 -1°C° 0 mm 4 mps 743 mmHg 85%
    20:00 -1°C° 0 mm 4 mps 744 mmHg 84%
    21:00 -1°C° 0 mm 4 mps 744 mmHg 84%
    22:00 -1°C° 0 mm 5 mps 745 mmHg 84%
    23:00 -1°C° 0 mm 5 mps 745 mmHg 84%

    29 Enero, Miércoles

    Tiempo Temperatura Precipitaciones Viento Presión Humedad
    00:00 -1°C° 0 mm 5 mps 746 mmHg 84%
    01:00 -1°C° 0 mm 5 mps 746 mmHg 83%
    02:00 0°C° 0 mm 5 mps 746 mmHg 82%
    03:00 0°C° 0 mm 5 mps 747 mmHg 81%
    04:00 0°C° 0 mm 5 mps 747 mmHg 81%
    05:00 0°C° 0 mm 5 mps 747 mmHg 81%
    06:00 -1°C° 0 mm 5 mps 747 mmHg 81%
    07:00 0°C° 0 mm 5 mps 748 mmHg 82%
    08:00 0°C° 0 mm 5 mps 748 mmHg 84%
    09:00 0°C° 0 mm 5 mps 748 mmHg 85%
    10:00 +1°C° 0 mm 6 mps 749 mmHg 80%
    11:00 +3°C° 0 mm 7 mps 749 mmHg 76%
    12:00 +4°C° 0 mm 7 mps 750 mmHg 71%
    13:00 +4°C° 0.1 mm 6 mps 750 mmHg 73%
    14:00 +4°C° 0.1 mm 6 mps 750 mmHg 76%
    15:00 +5°C° 0.1 mm 5 mps 751 mmHg 78%
    16:00 +4°C° 0 mm 4 mps 751 mmHg 82%
    17:00 +4°C° 0 mm 4 mps 751 mmHg 86%
    18:00 +3°C° 0 mm 3 mps 751 mmHg 90%
    19:00 +3°C° 0 mm 4 mps 751 mmHg 91%
    20:00 +3°C° 0 mm 4 mps 752 mmHg 93%
    21:00 +4°C° 0 mm 4 mps 752 mmHg 94%
    22:00 +3°C° 0 mm 5 mps 752 mmHg 94%
    23:00 +3°C° 0 mm 5 mps 752 mmHg 93%

    30 Enero, Jueves

    Tiempo Temperatura Precipitaciones Viento Presión Humedad
    00:00 +3°C° 0 mm 5 mps 752 mmHg 93%
    01:00 +3°C° 0 mm 5 mps 752 mmHg 92%
    02:00 +5°C° 0 mm 5 mps 752 mmHg 91%
    03:00 +5°C° 0 mm 5 mps 751 mmHg 90%
    04:00 +3°C° 0 mm 5 mps 751 mmHg 91%
    05:00 +3°C° 0 mm 5 mps 751 mmHg 92%
    06:00 +3°C° 0 mm 4 mps 751 mmHg 93%
    07:00 +3°C° 0 mm 4 mps 750 mmHg 94%
    08:00 +3°C° 0 mm 4 mps 750 mmHg 94%
    09:00 +3°C° 0 mm 4 mps 750 mmHg 95%
    10:00 +5°C° 0 mm 4 mps 750 mmHg 91%
    11:00 +6°C° 0 mm 5 mps 750 mmHg 88%
    12:00 +7°C° 0 mm 6 mps 749 mmHg 85%
    13:00 +7°C° 0 mm 5 mps 749 mmHg 85%
    14:00 +7°C° 0 mm 5 mps 748 mmHg 85%
    15:00 +7°C° 0 mm 4 mps 747 mmHg 85%
    16:00 +7°C° 0 mm 4 mps 747 mmHg 87%
    17:00 +6°C° 0 mm 4 mps 746 mmHg 89%
    18:00 +6°C° 0 mm 4 mps 746 mmHg 91%
    19:00 +6°C° 0 mm 4 mps 745 mmHg 93%
    20:00 +7°C° 0 mm 3 mps 745 mmHg 95%
    21:00 +7°C° 0 mm 3 mps 745 mmHg 97%
    22:00 +8°C° 0 mm 3 mps 744 mmHg 98%
    23:00 +8°C° 0 mm 3 mps 744 mmHg 98%
    Mostrar más